CZ-6A DEB, 56266

Orbit data source: Space-Track

CZ-6A DEB, 56266 is space debris in SSO originally from a launch on Fri, 11 Nov 2022 UTC launched from the Taiyaun Space Center, China (TSC). Debris objects in space refer to the collection of defunct objects orbiting the Earth. Examples of debris include non-operational satellites, rocket bodies, and fragments generated from explosions, collisions, or faulty payload assembly.

Loading next visibility...
Identifier
56266, 2022-151ACJ
Orbit
SSO
Country
Flag of CNCN / PRC
Related business
Manufacturer
SAST
Mission
Spacecraft
Bus & Motor
Unknown
Mass
Unknown
Launch date (UTC)
2022-11-11 (4 years ago)
Launch vehicle
Unknown
Launch site
Taiyaun Space Center, China (TSC)
Object type
Payload
Rocket body
Debris
Shape & HBR
Unknown shape, 0.1 m
Radar Cross Section
Medium (>0.1 m² and <1 m²)

Expand to show TLE details & history
Last TLE update: 17 hours ago

TLE from 17 hours ago
0 CZ-6A DEB
1 56266U 22151ACJ 26207.35700440  .00000259  00000-0  21632-3 0  9999
2 56266  98.9532 180.8374 0119250 331.5330  27.9351 13.93873429170486
Epoch: 2026-07-26T08:34Z
TLE epoch observation values (Epoch: 2026-07-26T08:34:05.180Z)
Latitude
-0.00008°
Longitude
108.25973°
Altitude
841.338 km
Speed
7.471 km/s
True Right ascension
12h 03m 20s
True Declination
0° 00' 00"
Sunlit
Object was in daylight at epoch
Visualization orbit readout
Latitude
Unknown
Longitude
Unknown
Altitude
Unknown
Speed
Unknown
Apparent Right ascension
Unknown
Apparent Declination
Unknown
Sunlit
N/A
Visualization observer readout
Local Sidereal Time
15:15:22
Azimuth
Unknown
Elevation
Unknown
Doppler factor
Unknown
Orbital elements
Apogee altitude
999.231 km
Perigee altitude
825.354 km
Semi-major axis
7,290.43 km
Eccentricity
0.01193
Inclination
98.9532°
RAAN
180.8374°
Arg. of periapsis
331.533°
True anomaly
28.58379°
Mean anomaly
27.9351°
Eccentric anomaly
28.25859°
Mean motion
3.48669 °/min
Orbital period
103.25 mins
BSTAR
0.00021632
Loading maneuver chart data...
Computing Atmospheric mass density...
Loading historical data...
Loading historical data...
Loading historical data...
Loading historical data...
Loading historical data...
Loading historical data...
Loading historical data...

Documentation

Showing up to 5 results
|